Home > Weather > Mattersburg > Past weeks

Flag for Austria Past Weather in Mattersburg, Burgenland, Austria — Yesterday and Last 2 Weeks

Now
81 °F

Pleasantly warm.


Feels Like: 80 °F
Forecast: 54 / 80 °F
Wind: 3 mph from East

Location: Eisenstadt

Current Time: Aug 25, 2016 at 5:12:48 PM

Latest Report: Aug 25, 2016 at 4:00 PM


Visibility: N/A

Pressure: 30.15 "Hg

Humidity: 40%

Dew Point: 54 °F

Location of MattersburgLocation

Past Weather in Mattersburg — Graph

°F

Mattersburg Temperature Yesterday

Maximum temperature yesterday: 78 °F (at 5:00 PM)
Minimum temperature yesterday: 61 °F (at 5:00 AM)
Average temperature yesterday: 70 °F

High & Low Weather Summary for the Past Weeks

 TemperatureHumidityPressure
High83 °F (Aug 14, 5:00 PM)97% (Aug 20, 7:00 AM)30.33 "Hg (Aug 20, 7:00 AM)
Low53 °F (Aug 12, 6:00 AM)38% (Aug 17, 6:00 PM)29.80 "Hg (Aug 18, 4:00 PM)
Average67 °F71%30.09 "Hg
* Reported Aug 10 4:00 PM — Aug 25 4:00 PM, Mattersburg, Weather by CustomWeather, © 2016

Note: Actual official high and low records may vary slightly from our data, if they occured in-between our weather recording intervals... More about our weather records

Advertising

Mattersburg Weather History for the Previous 24 Hours

Scroll right to see more
 ConditionsComfort  
Time TempWeatherWind HumidityBarometerVisibility
4:00 PM
Thu, Aug 25
81 °FPleasantly warm.3 mph40%30.15 "HgN/A
3:00 PM80 °FWarm.3 mph45%30.15 "HgN/A
2:00 PM78 °FSunny.2 mph48%30.17 "Hg12 mi
1:00 PM76 °FMild.2 mph49%30.18 "HgN/A
12:00 PM75 °FMild.3 mph54%30.19 "HgN/A
11:00 AM73 °FSunny.2 mph56%30.21 "Hg12 mi
10:00 AM70 °FMild.1 mph63%30.22 "HgN/A
9:00 AM68 °FMild.1 mph65%30.22 "HgN/A
8:00 AM64 °FSunny.No wind77%30.22 "Hg9 mi
7:00 AM60 °FSunny.1 mph85%30.23 "Hg9 mi
6:00 AM60 °FClear.2 mph83%30.21 "Hg9 mi
5:00 AM61 °FClear.2 mph81%30.20 "Hg9 mi
4:00 AM63 °FClear.3 mph77%30.21 "Hg9 mi
3:00 AM64 °FMild.6 mph76%30.21 "HgN/A
2:00 AM65 °FClear.6 mph73%30.22 "Hg9 mi
1:00 AM66 °FMild.5 mph68%30.22 "HgN/A
12:00 AM66 °FMild.5 mph68%30.22 "HgN/A
11:00 PM
Wed, Aug 24
65 °FClear.7 mph72%30.22 "Hg11 mi
10:00 PM64 °FMild.6 mph79%30.23 "HgN/A
9:00 PM65 °FMild.5 mph78%30.22 "HgN/A
8:00 PM69 °FClear.3 mph70%30.20 "Hg11 mi
7:00 PM77 °FScattered clouds.3 mph49%30.19 "Hg11 mi
6:00 PM78 °FWarm.3 mph46%30.20 "HgN/A
5:00 PM78 °FScattered clouds.6 mph46%30.20 "Hg9 mi
Weather by CustomWeather, © 2016

See weather overviewHow to use our weather pages